TimeEST,TemperatureF,Dew PointF,Humidity,Sea Level PressureIn,VisibilityMPH,Wind Direction,Wind SpeedMPH,Gust SpeedMPH,PrecipitationIn,Events,Conditions,WindDirDegrees,DateUTC
12:54 AM,42.1,37.0,82,30.37,10.0,NNE,4.6,-,N/A,,Clear,20,2012-11-17 05:54:00
1:54 AM,42.1,37.0,82,30.37,10.0,NNE,3.5,-,N/A,,Clear,20,2012-11-17 06:54:00
2:54 AM,42.1,36.0,79,30.36,10.0,NNE,6.9,-,N/A,,Clear,30,2012-11-17 07:54:00
3:54 AM,41.0,35.1,79,30.37,10.0,NNE,8.1,-,N/A,,Clear,30,2012-11-17 08:54:00
4:54 AM,41.0,35.1,79,30.36,10.0,NNE,10.4,-,N/A,,Clear,20,2012-11-17 09:54:00
5:54 AM,39.9,34.0,79,30.36,10.0,NNE,9.2,-,N/A,,Clear,20,2012-11-17 10:54:00
6:54 AM,39.9,34.0,79,30.40,10.0,NNE,8.1,-,N/A,,Clear,20,2012-11-17 11:54:00
7:54 AM,41.0,34.0,76,30.40,10.0,NE,11.5,-,N/A,,Clear,40,2012-11-17 12:54:00
8:54 AM,43.0,35.1,74,30.41,10.0,NE,13.8,19.6,N/A,,Clear,40,2012-11-17 13:54:00
9:18 AM,44.6,35.6,71,30.42,10.0,NNE,12.7,20.7,N/A,,Mostly Cloudy,30,2012-11-17 14:18:00
9:54 AM,46.0,37.0,71,30.42,10.0,NNE,13.8,-,N/A,,Overcast,30,2012-11-17 14:54:00
10:54 AM,50.0,39.9,68,30.40,10.0,North,16.1,20.7,N/A,,Mostly Cloudy,10,2012-11-17 15:54:00
11:03 AM,51.8,39.2,62,30.40,10.0,NNE,13.8,-,N/A,,Scattered Clouds,30,2012-11-17 16:03:00
11:54 AM,53.1,41.0,64,30.39,10.0,NNE,15.0,-,N/A,,Clear,30,2012-11-17 16:54:00
12:54 PM,55.9,43.0,62,30.38,10.0,NE,12.7,-,N/A,,Clear,40,2012-11-17 17:54:00
1:54 PM,57.0,43.0,59,30.36,10.0,NE,13.8,23.0,N/A,,Clear,40,2012-11-17 18:54:00
2:54 PM,55.9,43.0,62,30.36,10.0,ENE,9.2,-,N/A,,Clear,60,2012-11-17 19:54:00
3:54 PM,55.9,43.0,62,30.38,10.0,NE,9.2,21.9,N/A,,Clear,50,2012-11-17 20:54:00
4:54 PM,55.0,43.0,64,30.38,10.0,NE,15.0,20.7,N/A,,Clear,40,2012-11-17 21:54:00
5:54 PM,54.0,43.0,66,30.38,10.0,NE,12.7,-,N/A,,Clear,40,2012-11-17 22:54:00
6:54 PM,53.1,42.1,66,30.39,10.0,NNE,15.0,-,N/A,,Scattered Clouds,30,2012-11-17 23:54:00
7:54 PM,52.0,41.0,66,30.38,10.0,NNE,15.0,-,N/A,,Mostly Cloudy,30,2012-11-18 00:54:00
8:54 PM,52.0,39.9,63,30.38,10.0,NE,17.3,25.3,N/A,,Clear,40,2012-11-18 01:54:00
9:54 PM,51.1,41.0,68,30.39,10.0,NE,13.8,-,N/A,,Mostly Cloudy,40,2012-11-18 02:54:00
10:54 PM,50.0,39.9,68,30.38,10.0,NE,15.0,-,N/A,,Overcast,40,2012-11-18 03:54:00
11:54 PM,48.9,41.0,74,30.39,10.0,NNE,15.0,-,N/A,,Mostly Cloudy,30,2012-11-18 04:54:00